"Pseudo-MPEC" for ZTF10F7

Created 2026 Aug 8 2:35:12 UT using Find_Orb

Click here for an explanation of pseudo-MPECs

 
 Astrometry: 
     ZTF10F7*0C2026 08 02.31725721 53 29.213-13 16 11.07   ~82H5 17.15iUNEOCPI41
     ZTF10F7 0C2026 08 02.31760421 53 30.670-13 15 46.40   ~82H5 17.15iUNEOCPI41
     ZTF10F7 0C2026 08 02.35586021 56 08.425-12 29 01.70   ~82H5 16.97RUNEOCPI41
     ZTF10F7 0C2026 08 02.35620721 56 09.753-12 28 36.73   ~82H5 16.97RUNEOCPI41

Station data:
(I41) Palomar Mountain--ZTF  (N33.357336 W116.859780)  US/California.
   Observers B. T. Bolin, Z. T. F. Collaboration. Measurers B. T. Bolin,
   Z.-Y. Lin, F. J. Masci. 1.2-m f/2.4 Schmidt.

Orbital elements:  ZTF10F7
   Perihelion 2026 Jul 26.650646 +/- 31.6 TT = 15:36:55.8 (JD 2461248.150646)
Epoch 2026 Aug  2.0 TT = JDT 2461254.5   Earth MOID: 0.0077      AutoNEOCP
M   1.595786555 +/- 19              (J2000 ecliptic)
n   0.251330550 +/- 0.26            Peri.  351.977580 +/- 47
a   2.486790469 +/- 1.71            Node   309.820942 +/- 0.17
e   0.58988797 +/- 0.247            Incl.    5.576098 +/- 2.8
P   3.92156                H 26.67  G  0.15   U 11.8  SR
q 1.019862677 +/- 0.16    Q 3.953718260 +/- 29.1
From 4 observations 2026 Aug. 2 (56.1 min); mean residual 0".39
Residuals in arcseconds: 
260802 I41  .03-  .47+    260802 I41  .60+  .15+    
260802 I41  .03+  .47-    260802 I41  .59-  .14-    

Ephemerides (geocentric):
Date (UTC) HH   RA             Dec           delta  r     elong  mag " sig PA
---- --------  ------------   ------------  ------ ------ -----  --- --------
2026 08 08 03  00 03 03.389   +22 56 47.80  .03406 1.0327 122.5 21.4  56d  98
2026 08 08 04  00 03 17.887   +23 00 12.21  .03426 1.0328 122.4 21.4  56d  98
2026 08 08 05  00 03 32.220   +23 03 34.07  .03446 1.0329 122.4 21.5  56d  98
2026 08 08 06  00 03 46.390   +23 06 53.43  .03466 1.0330 122.3 21.5  56d  98
2026 08 08 07  00 04 00.400   +23 10 10.33  .03486 1.0330 122.3 21.5  56d  98
2026 08 08 08  00 04 14.252   +23 13 24.82  .03506 1.0331 122.3 21.5  56d  98
2026 08 08 09  00 04 27.950   +23 16 36.93  .03526 1.0332 122.2 21.5  56d  98
2026 08 08 10  00 04 41.494   +23 19 46.70  .03546 1.0333 122.2 21.5  56d  98
2026 08 08 11  00 04 54.888   +23 22 54.18  .03566 1.0334 122.1 21.5  56d  98
2026 08 08 12  00 05 08.134   +23 25 59.40  .03586 1.0335 122.1 21.6  56d  98
2026 08 08 13  00 05 21.234   +23 29 02.39  .03606 1.0336 122.1 21.6  56d  98
2026 08 08 14  00 05 34.190   +23 32 03.21  .03626 1.0337 122.0 21.6  56d  98
2026 08 08 15  00 05 47.005   +23 35 01.88  .03646 1.0337 122.0 21.6  56d  98
2026 08 08 16  00 05 59.680   +23 37 58.44  .03666 1.0338 122.0 21.6  56d  98
2026 08 08 17  00 06 12.217   +23 40 52.91  .03686 1.0339 121.9 21.6  56d  98
2026 08 08 18  00 06 24.620   +23 43 45.35  .03707 1.0340 121.9 21.6  56d  98
2026 08 08 19  00 06 36.888   +23 46 35.77  .03727 1.0341 121.9 21.6  56d  98
2026 08 08 20  00 06 49.026   +23 49 24.22  .03747 1.0342 121.9 21.7  56d  98
2026 08 08 21  00 07 01.033   +23 52 10.72  .03767 1.0343 121.8 21.7  56d  98
2026 08 08 22  00 07 12.913   +23 54 55.30  .03787 1.0344 121.8 21.7  56d  98
2026 08 08 23  00 07 24.667   +23 57 38.00  .03807 1.0345 121.8 21.7  55d  98
2026 08 09 00  00 07 36.297   +24 00 18.84  .03827 1.0345 121.7 21.7  55d  98
2026 08 09 01  00 07 47.805   +24 02 57.86  .03847 1.0346 121.7 21.7  55d  98
2026 08 09 02  00 07 59.192   +24 05 35.08  .03867 1.0347 121.7 21.7  55d  98
2026 08 09 03  00 08 10.460   +24 08 10.52  .03888 1.0348 121.7 21.7  55d  98
2026 08 09 04  00 08 21.611   +24 10 44.23  .03908 1.0349 121.6 21.8  55d  98
2026 08 09 05  00 08 32.646   +24 13 16.22  .03928 1.0350 121.6 21.8  55d  98
2026 08 09 06  00 08 43.567   +24 15 46.51  .03948 1.0351 121.6 21.8  55d  98
2026 08 09 07  00 08 54.376   +24 18 15.15  .03968 1.0352 121.6 21.8  55d  98
2026 08 09 08  00 09 05.074   +24 20 42.14  .03988 1.0353 121.6 21.8  55d  98
2026 08 09 09  00 09 15.663   +24 23 07.52  .04008 1.0354 121.5 21.8  55d  98
2026 08 09 10  00 09 26.144   +24 25 31.31  .04029 1.0355 121.5 21.8  55d  98
2026 08 09 11  00 09 36.518   +24 27 53.53  .04049 1.0356 121.5 21.8  55d  98
2026 08 09 12  00 09 46.787   +24 30 14.21  .04069 1.0356 121.5 21.8  55d  98
2026 08 09 13  00 09 56.953   +24 32 33.36  .04089 1.0357 121.5 21.9  55d  98
2026 08 09 14  00 10 07.016   +24 34 51.02  .04109 1.0358 121.4 21.9  55d  98
2026 08 09 15  00 10 16.979   +24 37 07.20  .04129 1.0359 121.4 21.9  55d  98
2026 08 09 16  00 10 26.842   +24 39 21.93  .04149 1.0360 121.4 21.9  55d  98
2026 08 09 17  00 10 36.607   +24 41 35.22  .04170 1.0361 121.4 21.9  55d  98
2026 08 09 18  00 10 46.275   +24 43 47.10  .04190 1.0362 121.4 21.9  55d  98
2026 08 09 19  00 10 55.847   +24 45 57.59  .04210 1.0363 121.4 21.9  55d  98
2026 08 09 20  00 11 05.325   +24 48 06.70  .04230 1.0364 121.3 21.9  55d  98
2026 08 09 21  00 11 14.710   +24 50 14.46  .04250 1.0365 121.3 21.9  55d  98
2026 08 09 22  00 11 24.003   +24 52 20.88  .04271 1.0366 121.3 22.0  55d  98
2026 08 09 23  00 11 33.205   +24 54 25.99  .04291 1.0367 121.3 22.0  55d  98
2026 08 10 00  00 11 42.317   +24 56 29.80  .04311 1.0368 121.3 22.0  55d  98
2026 08 10 01  00 11 51.341   +24 58 32.33  .04331 1.0369 121.3 22.0  55d  98
2026 08 10 02  00 12 00.277   +25 00 33.59  .04351 1.0370 121.3 22.0  55d  98